User: anonymous   Login
Location: Unspecified
(0.0000°N, 0.0000°E)
Time: 23:02:23
(UTC+00:00)
Language:

STARLINK-31071 - Orbit

View from above orbital plane
View from above orbital plane
View from above satellite
View from above satellite

Ground track
Ground track

The orbit is defined by the following mean orbital elements,

1 58602U          26145.47469293 +.00000000 +00000-0 +94025-4 0 00000
2 58602  43.0027 295.0373 0001764 280.1974  79.8678 15.27579789    02
Epoch (UTC): 25 May 2026 11:23:33
Eccentricity: 0.0001764
inclination: 43.0027°
perigee height: 482 km
apogee height: 484 km
right ascension of ascending node: 295.0373°
argument of perigee: 280.1974°
revolutions per day: 15.27579789
mean anomaly at epoch: 79.8678°

The dashed part of the orbit path shows where the satellite is in the earth's shadow,  

DLR